Weather History for Holdrege, NE

Change the Weather History Date:

Thursday, March 6, 2014

  Actual Average Record
Temperature  
Mean Temperature 38 °F -  
Max Temperature 53 °F 49 °F 84 °F (1972)
Min Temperature 23 °F 23 °F -3 °F (1989)
Degree Days  
Heating Degree Days 27    
Moisture  
Dew Point 30 °F    
Average Humidity 75    
Maximum Humidity 92    
Minimum Humidity 49    
Precipitation  
Precipitation 0.00 in - - ()
Sea Level Pressure  
Sea Level Pressure 29.92 in    
Wind  
Wind Speed 13 mph (South)    
Max Wind Speed 22 mph    
Max Gust Speed 28 mph    
Visibility 8 miles    
Events      
Averages and records for this station are not official NWS values.
T = Trace of Precipitation, MM = Missing Value Source: NWS Daily Summary

Daily Weather History Graph

Daily Weather History Graph

Search for Another Location

Airport:

Trip Planner

Search our weather history database for the weather conditions in past years. The results will help you decide how hot, cold, wet, or windy it might be!

Date:

Astronomy

Mar. 06, 2014 Rise Set
Actual Time 7:03 AM CST 6:34 PM CST
Civil Twilight 6:36 AM CST 7:01 PM CST
Nautical Twilight 6:04 AM CST 7:33 PM CST
Astronomical Twilight 5:32 AM CST 8:05 PM CST
Moon 10:11 AM CST (3/6) No Moon Set
Length of Visible Light 12h 25m
Length of Day
11h 31m
Waxing Crescent, 32% of the Moon is Illuminated
Mar 6
Waxing Crescent
Mar 8
First Quarter
Mar 16
Full
Mar 23
Last Quarter
Mar 30
New

Hourly Weather History & Observations

Time (CST) Temp. Windchill Dew Point Humidity Pressure Visibility Wind Dir Wind Speed Gust Speed Precip Events Conditions
12:15 AM 24.4 °F 15.6 °F 19.9 °F 83% 30.17 in 10.0 mi South 8.1 mph - N/A   Clear
12:35 AM 24.4 °F 15.6 °F 20.1 °F 84% 30.17 in 10.0 mi South 8.1 mph - N/A   Clear
12:55 AM 24.3 °F 14.6 °F 20.3 °F 85% 30.17 in 7.0 mi South 9.2 mph - N/A   Clear
1:15 AM 23.9 °F 15.0 °F 20.7 °F 87% 30.16 in 7.0 mi South 8.1 mph - N/A   Clear
1:35 AM 23.9 °F 14.2 °F 20.8 °F 88% 30.15 in 7.0 mi South 9.2 mph - N/A   Clear
1:55 AM 24.1 °F 13.7 °F 21.4 °F 89% 30.15 in 7.0 mi SSW 10.4 mph - N/A   Clear
2:15 AM 23.9 °F 15.0 °F 21.2 °F 89% 30.14 in 7.0 mi South 8.1 mph - N/A   Clear
2:35 AM 23.5 °F 15.4 °F 20.8 °F 89% 30.13 in 7.0 mi South 6.9 mph - N/A   Clear
2:55 AM 23.0 °F 14.7 °F 20.7 °F 91% 30.12 in 7.0 mi South 6.9 mph - N/A   Clear
3:15 AM 24.4 °F 14.9 °F 21.9 °F 90% 30.11 in 7.0 mi SSW 9.2 mph - N/A   Clear
3:35 AM 24.8 °F 13.4 °F 22.1 °F 89% 30.10 in 7.0 mi SSW 12.7 mph - N/A   Clear
3:55 AM 24.6 °F 15.1 °F 21.9 °F 89% 30.09 in 7.0 mi South 9.2 mph - N/A   Clear
4:15 AM 24.6 °F 14.4 °F 21.9 °F 89% 30.07 in 7.0 mi South 10.4 mph - N/A   Clear
4:35 AM 25.7 °F 13.1 °F 23.0 °F 89% 30.07 in 7.0 mi South 16.1 mph - N/A   Clear
4:55 AM 25.5 °F 13.8 °F 22.8 °F 89% 30.06 in 7.0 mi SSW 13.8 mph - N/A   Clear
5:15 AM 25.7 °F 12.7 °F 22.8 °F 89% 30.06 in 7.0 mi SSW 17.3 mph - N/A   Clear
5:35 AM 25.2 °F 13.9 °F 22.5 °F 89% 30.05 in 5.0 mi South 12.7 mph - N/A   Clear
5:55 AM 25.0 °F 13.6 °F 22.5 °F 90% 30.04 in 5.0 mi South 12.7 mph - N/A   Clear
6:15 AM 25.2 °F 14.4 °F 22.6 °F 90% 30.04 in 5.0 mi South 11.5 mph - N/A   Clear
6:35 AM 25.5 °F 13.8 °F 23.0 °F 90% 30.04 in 5.0 mi South 13.8 mph - N/A   Clear
6:55 AM 25.2 °F 13.9 °F 22.8 °F 91% 30.03 in 5.0 mi South 12.7 mph - N/A   Clear
7:15 AM 25.5 °F 14.9 °F 23.4 °F 92% 30.02 in 4.0 mi South 11.5 mph - N/A   Clear
7:35 AM 25.7 °F 14.0 °F 23.7 °F 92% 30.01 in 4.0 mi South 13.8 mph - N/A   Clear
7:55 AM 26.4 °F 16.0 °F 24.3 °F 92% 30.00 in 3.0 mi South 11.5 mph - N/A   Clear
8:15 AM 28.0 °F 18.6 °F 25.7 °F 91% 30.00 in 4.0 mi South 10.4 mph - N/A   Clear
8:35 AM 29.8 °F 19.8 °F 27.3 °F 90% 30.00 in 4.0 mi South 12.7 mph - N/A   Clear
8:55 AM 32.0 °F 20.8 °F 29.3 °F 90% 30.00 in 5.0 mi South 17.3 mph 21.9 mph N/A   Clear
9:15 AM 33.1 °F 21.5 °F 29.8 °F 88% 29.99 in 7.0 mi South 19.6 mph 24.2 mph N/A   Clear
9:35 AM 35.2 °F 25.0 °F 30.9 °F 84% 29.99 in 10.0 mi South 17.3 mph 23.0 mph N/A   Clear
9:55 AM 36.5 °F 26.7 °F 30.4 °F 78% 29.99 in 10.0 mi South 17.3 mph - N/A   Clear
10:15 AM 37.9 °F 28.9 °F 30.7 °F 75% 29.98 in 10.0 mi South 16.1 mph - N/A   Clear
10:35 AM 40.1 °F 30.7 °F 30.9 °F 70% 29.97 in 10.0 mi SSW 19.6 mph - N/A   Clear
10:55 AM 41.7 °F 33.4 °F 30.9 °F 66% 29.96 in 10.0 mi SSW 17.3 mph 25.3 mph N/A   Clear
11:15 AM 43.2 °F 34.5 °F 30.9 °F 62% 29.95 in 10.0 mi SSW 20.7 mph 27.6 mph N/A   Clear
11:35 AM 43.0 °F 35.1 °F 30.9 °F 62% 29.94 in 10.0 mi SSW 17.3 mph 25.3 mph N/A   Clear
11:55 AM 44.2 °F 36.2 °F 31.1 °F 60% 29.93 in 10.0 mi South 19.6 mph - N/A   Clear
12:15 PM 45.5 °F 37.8 °F 32.0 °F 59% 29.93 in 10.0 mi SSW 19.6 mph - N/A   Clear
12:35 PM 45.9 °F 39.1 °F 32.0 °F 58% 29.92 in 10.0 mi South 16.1 mph 24.2 mph N/A   Clear
12:55 PM 46.6 °F - 32.0 °F 57% 29.90 in 10.0 mi SSW 18.4 mph 25.3 mph N/A   Clear
1:15 PM 47.5 °F - 32.4 °F 56% 29.89 in 10.0 mi South 21.9 mph 25.3 mph N/A   Clear
1:35 PM 48.4 °F - 33.1 °F 56% 29.87 in 10.0 mi South 13.8 mph - N/A   Clear
1:55 PM 49.8 °F - 34.0 °F 55% 29.86 in 10.0 mi South 17.3 mph 21.9 mph N/A   Clear
2:15 PM 50.9 °F - 33.8 °F 52% 29.85 in 10.0 mi South 18.4 mph 25.3 mph N/A   Clear
2:35 PM 52.0 °F - 34.0 °F 50% 29.84 in 10.0 mi South 21.9 mph 26.5 mph N/A   Clear
2:55 PM 51.3 °F - 33.8 °F 51% 29.83 in 10.0 mi South 19.6 mph 25.3 mph N/A   Clear
3:15 PM 51.3 °F - 34.0 °F 52% 29.83 in 10.0 mi South 20.7 mph 26.5 mph N/A   Clear
3:35 PM 53.4 °F - 34.5 °F 49% 29.83 in 10.0 mi South 19.6 mph 26.5 mph N/A   Clear
3:55 PM 51.4 °F - 34.7 °F 53% 29.82 in 10.0 mi South 18.4 mph 26.5 mph N/A   Clear
4:15 PM 51.3 °F - 35.2 °F 54% 29.81 in 10.0 mi South 17.3 mph 24.2 mph N/A   Clear
4:35 PM 52.7 °F - 36.0 °F 53% 29.80 in 10.0 mi South 19.6 mph 26.5 mph N/A   Clear
4:55 PM 53.6 °F - 36.5 °F 52% 29.79 in 10.0 mi South 19.6 mph 26.5 mph N/A   Clear
5:15 PM 52.0 °F - 36.5 °F 56% 29.79 in 10.0 mi South 15.0 mph 25.3 mph N/A   Clear
5:35 PM 50.0 °F - 36.5 °F 60% 29.78 in 10.0 mi South 17.3 mph - N/A   Clear
5:55 PM 48.6 °F - 36.5 °F 63% 29.77 in 10.0 mi South 15.0 mph - N/A   Clear
6:15 PM 47.3 °F - 36.1 °F 65% 29.77 in 10.0 mi South 15.0 mph - N/A   Clear
6:35 PM 46.4 °F 40.1 °F 36.0 °F 67% 29.77 in 10.0 mi South 15.0 mph - N/A   Clear
6:55 PM 45.5 °F 38.9 °F 36.0 °F 69% 29.77 in 10.0 mi South 15.0 mph 19.6 mph N/A   Clear
7:15 PM 44.6 °F 38.1 °F 36.0 °F 72% 29.77 in 10.0 mi South 13.8 mph - N/A   Clear
7:35 PM 43.9 °F 36.8 °F 36.1 °F 74% 29.77 in 10.0 mi South 15.0 mph - N/A   Clear
7:55 PM 43.7 °F 36.9 °F 36.3 °F 75% 29.76 in 10.0 mi South 13.8 mph 19.6 mph N/A   Clear
8:15 PM 43.7 °F 36.6 °F 36.7 °F 76% 29.76 in 10.0 mi South 15.0 mph 20.7 mph N/A   Clear
8:35 PM 42.8 °F 35.4 °F 36.5 °F 78% 29.76 in 10.0 mi South 15.0 mph 18.4 mph N/A   Clear
8:55 PM 42.3 °F 35.5 °F 36.5 °F 80% 29.76 in 10.0 mi South 12.7 mph - N/A   Clear
9:15 PM 41.9 °F 34.6 °F 36.5 °F 81% 29.76 in 10.0 mi South 13.8 mph - N/A   Clear
9:35 PM 41.5 °F 34.6 °F 36.1 °F 81% 29.76 in 10.0 mi South 12.7 mph 19.6 mph N/A   Clear
9:55 PM 41.4 °F 33.6 °F 36.1 °F 82% 29.75 in 10.0 mi South 15.0 mph - N/A   Clear
10:15 PM 41.5 °F 33.8 °F 36.3 °F 82% 29.75 in 10.0 mi South 15.0 mph 19.6 mph N/A   Clear
10:35 PM 41.4 °F 34.0 °F 36.0 °F 81% 29.74 in 10.0 mi South 13.8 mph 19.6 mph N/A   Clear
10:55 PM 41.4 °F 34.3 °F 36.0 °F 81% 29.74 in 10.0 mi South 12.7 mph - N/A   Clear
11:15 PM 41.2 °F 34.1 °F 35.8 °F 81% 29.73 in 10.0 mi South 12.7 mph - N/A   Clear
11:35 PM 41.0 °F 33.5 °F 35.6 °F 81% 29.73 in 10.0 mi South 13.8 mph - N/A   Clear
11:55 PM 41.0 °F 33.5 °F 35.6 °F 81% 29.72 in 10.0 mi South 13.8 mph - N/A   Clear